Hoolehua, HI

3:32 AM HST on July 26, 2016 (GMT -1000)
Molokai

Weather History for PHMK - September, 2013

Change the Weather History Date:

Wednesday, September 11, 2013

  Actual Average Record
Temperature  
Mean Temperature 78 °F -  
Max Temperature 82 °F 85 °F 91 °F (1992)
Min Temperature 73 °F 70 °F 65 °F (1973)
Cooling Degree Days 12    
Growing Degree Days 28 (Base 50)    
Moisture  
Dew Point 72 °F    
Average Humidity 84    
Maximum Humidity 97    
Minimum Humidity 67    
Precipitation  
Precipitation 0.00 in - - ()
Sea Level Pressure  
Sea Level Pressure 30.06 in    
Wind  
Wind Speed 9 mph (NNE)    
Max Wind Speed 15 mph    
Max Gust Speed 26 mph    
Visibility 10 miles    
Events Rain    
Averages and records for this station are not official NWS values.
T = Trace of Precipitation, MM = Missing Value Source: NWS Daily Summary

Daily Weather History Graph

Daily Weather History Graph

Search for Another Location

Airport or City:

Trip Planner

Search our weather history database for the weather conditions in past years. The results will help you decide how hot, cold, wet, or windy it might be!

Date:

Astronomy

Sep. 11, 2013 Rise Set
Actual Time 6:14 AM HST 6:34 PM HST
Civil Twilight 5:52 AM HST 6:56 PM HST
Nautical Twilight 5:26 AM HST 7:22 PM HST
Astronomical Twilight 5:00 AM HST 7:49 PM HST
Moon 12:06 PM HST (9/11) 11:29 PM HST (9/11)
Length of Visible Light 13h 04m
Length of Day
12h 20m
Waxing Crescent, 41% of the Moon is Illuminated
Sep 11
Waxing Crescent
Sep 12
First Quarter
Sep 19
Full
Sep 26
Last Quarter
Oct 4
New

Hourly Weather History & Observations

Time (HST) Temp. Heat Index Dew Point Humidity Pressure Visibility Wind Dir Wind Speed Gust Speed Precip Events Conditions
12:54 AM 75.0 °F - 71.1 °F 87% 30.07 in 10.0 mi NE 8.1 mph - N/A   Clear
1:54 AM 73.9 °F - 71.1 °F 91% 30.05 in 10.0 mi NNE 4.6 mph - N/A   Clear
2:54 AM 73.9 °F - 71.1 °F 91% 30.05 in 10.0 mi NNE 4.6 mph - N/A   Clear
3:54 AM 73.9 °F - 72.0 °F 93% 30.04 in 10.0 mi NNE 6.9 mph - N/A   Clear
4:54 AM 73.9 °F - 72.0 °F 93% 30.04 in 10.0 mi NNE 9.2 mph - N/A   Clear
5:50 AM 75.2 °F - 73.4 °F 94% 30.05 in 10.0 mi NNE 8.1 mph - 0.00 in Rain Light Rain
5:54 AM 73.9 °F - 73.0 °F 97% 30.05 in 10.0 mi NNE 6.9 mph - 0.00 in Rain Light Rain
6:54 AM 73.9 °F - 72.0 °F 93% 30.07 in 10.0 mi NNE 10.4 mph 18.4 mph 0.00 in   Scattered Clouds
7:54 AM 78.1 °F - 72.0 °F 81% 30.09 in 10.0 mi ENE 13.8 mph 18.4 mph N/A   Scattered Clouds
8:54 AM 79.0 °F - 72.0 °F 79% 30.10 in 10.0 mi NNE 13.8 mph 20.7 mph N/A   Scattered Clouds
9:54 AM 78.1 °F - 72.0 °F 81% 30.12 in 10.0 mi NNE 11.5 mph 19.6 mph N/A   Scattered Clouds
10:54 AM 82.0 °F 86.7 °F 72.0 °F 71% 30.10 in 10.0 mi NNE 13.8 mph 23.0 mph 0.00 in   Scattered Clouds
11:54 AM 82.0 °F 86.7 °F 72.0 °F 71% 30.09 in 10.0 mi NE 11.5 mph 20.7 mph N/A   Scattered Clouds
12:54 PM 82.9 °F 87.5 °F 71.1 °F 67% 30.06 in 9.0 mi NE 15.0 mph 26.5 mph N/A   Scattered Clouds
1:54 PM 82.0 °F 86.7 °F 72.0 °F 71% 30.04 in 10.0 mi North 13.8 mph 23.0 mph N/A   Scattered Clouds
2:54 PM 82.9 °F 88.0 °F 72.0 °F 69% 30.01 in 10.0 mi NNE 12.7 mph 24.2 mph N/A   Scattered Clouds
3:54 PM 80.1 °F 83.8 °F 72.0 °F 76% 30.02 in 10.0 mi NNE 12.7 mph 18.4 mph N/A   Scattered Clouds
4:54 PM 81.0 °F 84.1 °F 69.1 °F 67% 30.02 in 10.0 mi NE 12.7 mph 21.9 mph N/A   Partly Cloudy
5:54 PM 79.0 °F - 71.1 °F 77% 30.03 in 10.0 mi NE 10.4 mph - N/A   Partly Cloudy
6:54 PM 75.9 °F - 72.0 °F 87% 30.04 in 10.0 mi NNE 9.2 mph - N/A   Partly Cloudy
7:54 PM 75.9 °F - 73.0 °F 91% 30.05 in 10.0 mi NNE 8.1 mph - N/A   Clear
8:54 PM 75.0 °F - 72.0 °F 90% 30.07 in 10.0 mi NNE 4.6 mph - N/A   Clear
9:54 PM 75.0 °F - 72.0 °F 90% 30.07 in 10.0 mi NNE 5.8 mph - N/A   Clear
10:54 PM 75.0 °F - 73.0 °F 94% 30.06 in 10.0 mi North 3.5 mph - N/A   Partly Cloudy
11:54 PM 73.9 °F - 72.0 °F 93% 30.06 in 10.0 mi NNW 4.6 mph - N/A   Clear